Search projects


Showing 1-50 of 1,322 items.
NameOwnerPublication dateProject typeLikesViewed 
Built-in led 13 - Blink! Arduinoblocks 2016-04-27 16:50:48Arduino Uno 111614
THLPaola Pérez2016-05-31 13:23:28Arduino Uno 11062
P01 - Secuencia 1Juanjo López2016-07-29 11:18:36Arduino Uno 01242
P01 - Secuencia 2Juanjo López2016-07-29 11:19:06Arduino Uno 11241
P02 - Amanecer / anochecerJuanjo López2016-07-29 11:24:13Arduino Uno 01508
P03 - Lampara intensidad manualJuanjo López2016-07-29 11:40:47Arduino Uno 01280
P03 - Lampara intensidad manual (b)Juanjo López2016-07-29 11:49:11Arduino Uno 01152
P04 - SemáforoJuanjo López2016-07-29 11:59:25Arduino Uno 31449
P10 - FotómetroJuanjo López2016-08-28 16:35:20Arduino Uno 11402
P11 - Iluminación crepuscularJuanjo López2016-08-28 16:55:00Arduino Uno 11289
P12 - Encendido / apagado con palmadaJuanjo López2016-08-28 17:01:22Arduino Uno 11372
P13 - TermómetroJuanjo López2016-08-28 17:24:03Arduino Uno 31440
P14 - TermostatoJuanjo López2016-08-28 17:47:34Arduino Uno 51584
P15 - Medidor de distanciaJuanjo López2016-08-28 19:16:33Arduino Uno 11544
P16 - Riego automáticoJuanjo López2016-08-28 19:27:45Arduino Uno 21501
P17 - Lámpara multicolor IRJuanjo López2016-08-28 19:44:31Arduino Uno 01285
P18 - Piano con tecladoJuanjo López2016-08-28 22:15:30Arduino Uno 01466
P19 - Sensor de aparcamientoJuanjo López2016-08-28 22:37:54Arduino Uno 31434
P20 - Control pan/tiltJuanjo López2016-08-28 23:06:39Arduino Uno 01354
P21 - Control led desde PCJuanjo López2016-08-28 23:31:50Arduino Uno 11364
P22 - Control relés bluetoothJuanjo López2016-08-29 10:19:06Arduino Uno 21819
P23 - Estación metereológica bluetoothJuanjo López2016-08-29 10:33:12Arduino Uno 01456
P24 - Control por voz AndroidJuanjo López2016-08-29 16:55:45Arduino Uno 21380
P25 - Control domoticoJuanjo López2016-08-29 17:52:18Arduino Uno 11556
P05 - TimbreJuanjo López2016-08-29 19:56:31Arduino Uno 11376
P06 - Control inteligenteJuanjo López2016-08-29 20:04:11Arduino Uno 01274
P07 - Encendido por movimientoJuanjo López2016-08-29 20:04:29Arduino Uno 01340
P08 - Contador manualJuanjo López2016-08-29 20:04:41Arduino Uno 01332
P09 - CronómetroJuanjo López2016-08-29 20:04:52Arduino Uno 21516
Hola mundoArduinoblocks 2016-09-27 21:48:59Arduino Uno 42446
Termómetro digitalArduinoblocks 2016-09-28 22:25:26Arduino Uno 32372
Control de led RGBArduinoblocks 2016-09-29 16:42:45Arduino Uno 11457
Me gusta!Arduinoblocks 2016-09-29 17:50:11Arduino Uno 21771
Sensor aparcamientoArduinoblocks 2016-10-03 10:36:43Arduino Uno 116042
Led controlado con mando IRArduinoblocks 2016-10-04 21:06:01Arduino Uno 41747
Control de led con palmadaArduinoblocks 2016-10-07 10:39:01Arduino Uno 32250
Nivel de luz (LDR + servo)Arduinoblocks 2016-10-12 12:01:41Arduino Uno 64434
Invernadero AutomaticoArgon Argon2016-10-12 22:49:59Arduino Uno 41671
Temperatura/Humedad BluetoothArduinoblocks 2016-10-18 18:16:22Arduino Uno 76301
Condensador de fluzoArduinoblocks 2016-10-20 19:35:51Arduino Uno 31333
Easy PLUG - Relé + LCDArduinoblocks 2016-10-25 00:05:38Arduino Uno 21575
Calculador de intermitencia de vehículo. 2.0.Sistemas Eléctricos Del Automovil2016-10-27 16:46:50Arduino Uno 189
Encender/Apagar con un pulsadorArduinoblocks 2016-11-19 10:51:36Arduino Uno 11723
Cuenta vueltas coches tipo ScalextricJaime Del Hoyo Gomez2016-11-27 18:58:02Arduino Uno 11417
Multitarea sin bloqueoArduinoblocks 2016-12-01 12:02:58Arduino Uno 11439
GPS consolaArduinoblocks 2016-12-04 22:51:35Arduino Uno 11106
GPS con pantalla LCDArduinoblocks 2016-12-04 22:54:53Arduino Uno 21384
GPS tupperware 1.0Arduinoblocks 2016-12-05 08:25:20Arduino Uno 11165
GPS aviso de velocidadArduinoblocks 2016-12-05 09:10:19Arduino Uno 21261
Tareas 2.0Arduinoblocks 2016-12-05 17:30:26Arduino Uno 01235